Weather History for Gilze-Rijen, Netherlands

Change the Weather History Date:

Thursday, July 4, 2013

  Actual Average Record
Temperature  
Mean Temperature 18 °C -  
Max Temperature 22 °C 22 °C 32 °C (2006)
Min Temperature 15 °C 12 °C 6 °C (2011)
Growing Degree Days 15 (Base 50)    
Moisture  
Dew Point 15 °C    
Average Humidity 88    
Maximum Humidity 100    
Minimum Humidity 60    
Precipitation  
Precipitation 0.0 mm - - ()
Sea Level Pressure  
Sea Level Pressure 1019.00 hPa    
Wind  
Wind Speed 8 km/h ()    
Max Wind Speed 18 km/h    
Max Gust Speed -    
Visibility 8.8 kilometers    
Events Rain    
Averages and records for this station are not official NWS values.
T = Trace of Precipitation, MM = Missing Value Source: Averaged Metar Reports

Daily Weather History Graph

Daily Weather History Graph

Search for Another Location

Airport:

Trip Planner

Search our weather history database for the weather conditions in past years. The results will help you decide how hot, cold, wet, or windy it might be!

Date:

Astronomy

Jul. 04, 2013 Rise Set
Actual Time 5:29 AM CEST 9:59 PM CEST
Civil Twilight 4:42 AM CEST 10:46 PM CEST
Nautical Twilight 3:30 AM CEST 11:57 PM CEST
Astronomical Twilight 2:17 AM CEST 1:12 AM CEST
Moon 2:47 AM CEST (7/4) 6:40 PM CEST (7/4)
Length of Visible Light 18h 03m
Length of Day
16h 30m
Waning Crescent, 13% of the Moon is Illuminated
Jul 4
Waning Crescent
Jul 8
New
Jul 16
First Quarter
Jul 22
Full
Jul 29
Last Quarter

Hourly Weather History & Observations

Time (CEST) Temp. Dew Point Humidity Pressure Visibility Wind Dir Wind Speed Gust Speed Precip Events Conditions
12:25 AM 16.0 °C 15.0 °C 94% 1015 hPa 5.0 km SW 5.6 km/h / 1.5 m/s - N/A   Overcast
12:33 AM 15.0 °C 15.0 °C 100% 1015 hPa 5.0 km SW 5.6 km/h / 1.5 m/s - N/A   Scattered Clouds
12:37 AM 15.0 °C 15.0 °C 100% 1015 hPa 5.0 km SW 5.6 km/h / 1.5 m/s - N/A   Scattered Clouds
12:55 AM 15.0 °C 15.0 °C 100% 1015 hPa 5.0 km SSW 5.6 km/h / 1.5 m/s - N/A   Overcast
1:02 AM 15.0 °C 15.0 °C 100% 1016 hPa 5.0 km SSW 5.6 km/h / 1.5 m/s - N/A   Overcast
1:15 AM 15.0 °C 15.0 °C 100% 1016 hPa 6.0 km SSW 5.6 km/h / 1.5 m/s - N/A   Overcast
1:20 AM 15.0 °C 15.0 °C 100% 1016 hPa 6.0 km SSW 5.6 km/h / 1.5 m/s - N/A   Mostly Cloudy
1:25 AM 15.0 °C 15.0 °C 100% 1016 hPa 7.0 km SSW 5.6 km/h / 1.5 m/s - N/A   Mostly Cloudy
1:36 AM 15.0 °C 15.0 °C 100% 1016 hPa 8.0 km SSW 5.6 km/h / 1.5 m/s - N/A   Overcast
1:40 AM 15.0 °C 15.0 °C 100% 1016 hPa 7.0 km SSW 5.6 km/h / 1.5 m/s - N/A   Overcast
1:44 AM 16.0 °C 15.0 °C 94% 1016 hPa 8.0 km SSW 5.6 km/h / 1.5 m/s - N/A   Overcast
1:50 AM 16.0 °C 15.0 °C 94% 1016 hPa 7.0 km SSW 5.6 km/h / 1.5 m/s - N/A   Overcast
1:55 AM 16.0 °C 15.0 °C 94% 1016 hPa 7.0 km SSW 5.6 km/h / 1.5 m/s - N/A   Overcast
2:01 AM 15.0 °C 15.0 °C 100% 1016 hPa 8.0 km SSW 5.6 km/h / 1.5 m/s - N/A   Overcast
2:05 AM 15.0 °C 15.0 °C 100% 1016 hPa 8.0 km SSW 5.6 km/h / 1.5 m/s - N/A   Overcast
2:14 AM 15.0 °C 15.0 °C 100% 1016 hPa 8.0 km SSW 5.6 km/h / 1.5 m/s - N/A   Overcast
2:25 AM 15.0 °C 15.0 °C 100% 1016 hPa 8.0 km SW 5.6 km/h / 1.5 m/s - N/A   Overcast
2:33 AM 15.0 °C 15.0 °C 100% 1016 hPa 7.0 km SSW 5.6 km/h / 1.5 m/s - N/A   Overcast
2:37 AM 15.0 °C 15.0 °C 100% 1016 hPa 8.0 km SSW 5.6 km/h / 1.5 m/s - N/A   Overcast
2:47 AM 15.0 °C 15.0 °C 100% 1016 hPa 8.0 km SW 5.6 km/h / 1.5 m/s - N/A   Overcast
2:55 AM 15.0 °C 15.0 °C 100% 1016 hPa 8.0 km SW 5.6 km/h / 1.5 m/s - N/A   Overcast
2:56 AM 15.0 °C 15.0 °C 100% 1016 hPa 8.0 km SW 5.6 km/h / 1.5 m/s - N/A   Overcast
3:12 AM 15.0 °C 15.0 °C 100% 1016 hPa 8.0 km SSW 7.4 km/h / 2.1 m/s - N/A   Overcast
3:25 AM 15.0 °C 15.0 °C 100% 1016 hPa 8.0 km SW 5.6 km/h / 1.5 m/s - N/A   Overcast
3:37 AM 16.0 °C 15.0 °C 94% 1016 hPa 8.0 km SW 7.4 km/h / 2.1 m/s - N/A   Mostly Cloudy
3:48 AM 16.0 °C 15.0 °C 94% 1016 hPa 8.0 km SW 7.4 km/h / 2.1 m/s - N/A   Overcast
3:55 AM 16.0 °C 15.0 °C 94% 1016 hPa 8.0 km SW 7.4 km/h / 2.1 m/s - N/A   Mostly Cloudy
3:56 AM 16.0 °C 15.0 °C 94% 1016 hPa 8.0 km SW 7.4 km/h / 2.1 m/s - N/A   Overcast
4:25 AM 16.0 °C 15.0 °C 94% 1016 hPa 8.0 km SW 7.4 km/h / 2.1 m/s - N/A   Overcast
4:55 AM 16.0 °C 15.0 °C 94% 1017 hPa 8.0 km SW 7.4 km/h / 2.1 m/s - N/A   Overcast
4:59 AM 16.0 °C 15.0 °C 94% 1017 hPa 8.0 km SW 7.4 km/h / 2.1 m/s - N/A   Mostly Cloudy
5:19 AM 15.0 °C 15.0 °C 100% 1017 hPa 8.0 km SW 7.4 km/h / 2.1 m/s - N/A   Overcast
5:25 AM 15.0 °C 15.0 °C 100% 1017 hPa 8.0 km SW 7.4 km/h / 2.1 m/s - N/A   Overcast
5:55 AM 15.0 °C 15.0 °C 100% 1017 hPa 8.0 km SW 7.4 km/h / 2.1 m/s - N/A   Overcast
6:00 AM 15.0 °C 15.0 °C 100% 1017 hPa 8.0 km SW 7.4 km/h / 2.1 m/s - N/A   Overcast
6:25 AM 15.0 °C 15.0 °C 100% 1017 hPa 9.0 km SSW 7.4 km/h / 2.1 m/s - N/A   Overcast
6:55 AM 15.0 °C 15.0 °C 100% 1017 hPa 10.0 km SSW 7.4 km/h / 2.1 m/s - N/A   Overcast
7:06 AM 15.0 °C 15.0 °C 100% 1017 hPa 10.0 km SW 7.4 km/h / 2.1 m/s - N/A   Overcast
7:13 AM 15.0 °C 15.0 °C 100% 1018 hPa 10.0 km SW 7.4 km/h / 2.1 m/s - N/A   Overcast
7:25 AM 15.0 °C 15.0 °C 100% 1018 hPa 10.0 km SW 7.4 km/h / 2.1 m/s - N/A   Overcast
7:55 AM 16.0 °C 15.0 °C 94% 1018 hPa 10.0 km SSW 7.4 km/h / 2.1 m/s - N/A   Overcast
8:10 AM 16.0 °C 15.0 °C 94% 1018 hPa 10.0 km SSW 9.3 km/h / 2.6 m/s - N/A   Overcast
8:25 AM 16.0 °C 15.0 °C 94% 1018 hPa 10.0 km SW 11.1 km/h / 3.1 m/s - N/A   Mostly Cloudy
8:55 AM 16.0 °C 15.0 °C 94% 1019 hPa 10.0 km SW 13.0 km/h / 3.6 m/s - N/A   Overcast
9:25 AM 17.0 °C 15.0 °C 88% 1019 hPa 10.0 km SW 13.0 km/h / 3.6 m/s - N/A   Overcast
9:34 AM 17.0 °C 15.0 °C 88% 1019 hPa 10.0 km SW 11.1 km/h / 3.1 m/s - N/A   Mostly Cloudy
9:55 AM 18.0 °C 15.0 °C 83% 1019 hPa 10.0 km SSW 11.1 km/h / 3.1 m/s - N/A   Partly Cloudy
10:20 AM 19.0 °C 16.0 °C 83% 1019 hPa 10.0 km SSW 11.1 km/h / 3.1 m/s - N/A   Scattered Clouds
10:25 AM 19.0 °C 16.0 °C 83% 1019 hPa 10.0 km SSW 13.0 km/h / 3.6 m/s - N/A   Mostly Cloudy
10:30 AM 19.0 °C 15.0 °C 78% 1019 hPa 10.0 km SW 13.0 km/h / 3.6 m/s - N/A   Scattered Clouds
10:44 AM 20.0 °C 16.0 °C 78% 1020 hPa 10.0 km SW 11.1 km/h / 3.1 m/s - N/A   Mostly Cloudy
10:48 AM 20.0 °C 16.0 °C 78% 1020 hPa 10.0 km SW 13.0 km/h / 3.6 m/s - N/A   Scattered Clouds
10:55 AM 20.0 °C 15.0 °C 73% 1020 hPa 10.0 km SW 13.0 km/h / 3.6 m/s - N/A   Mostly Cloudy
11:25 AM 21.0 °C 16.0 °C 73% 1020 hPa 10.0 km SSW 14.8 km/h / 4.1 m/s - N/A   Mostly Cloudy
11:48 AM 20.0 °C 15.0 °C 73% 1020 hPa 10.0 km SW 13.0 km/h / 3.6 m/s - N/A   Mostly Cloudy
11:55 AM 20.0 °C 15.0 °C 73% 1020 hPa 10.0 km SW 14.8 km/h / 4.1 m/s - N/A   Mostly Cloudy
11:56 AM 21.0 °C 15.0 °C 68% 1020 hPa 10.0 km SSW 16.7 km/h / 4.6 m/s - N/A   Scattered Clouds
12:10 PM 20.0 °C 15.0 °C 73% 1020 hPa 10.0 km SW 13.0 km/h / 3.6 m/s - N/A   Mostly Cloudy
12:25 PM 20.0 °C 14.0 °C 68% 1020 hPa 10.0 km WSW 11.1 km/h / 3.1 m/s - N/A   Mostly Cloudy
12:55 PM 21.0 °C 15.0 °C 68% 1020 hPa 10.0 km SW 13.0 km/h / 3.6 m/s - N/A   Mostly Cloudy
1:25 PM 21.0 °C 14.0 °C 64% 1020 hPa 10.0 km SW 18.5 km/h / 5.1 m/s - N/A   Overcast
1:55 PM 22.0 °C 15.0 °C 64% 1020 hPa 10.0 km WSW 16.7 km/h / 4.6 m/s - N/A   Scattered Clouds
2:25 PM 21.0 °C 14.0 °C 64% 1020 hPa 10.0 km WSW 16.7 km/h / 4.6 m/s - N/A   Mostly Cloudy
2:55 PM 21.0 °C 14.0 °C 64% 1020 hPa 10.0 km WSW 18.5 km/h / 5.1 m/s - N/A   Mostly Cloudy
3:25 PM 20.0 °C 14.0 °C 68% 1021 hPa 10.0 km SW 14.8 km/h / 4.1 m/s - N/A   Overcast
3:55 PM 21.0 °C 14.0 °C 64% 1021 hPa 10.0 km WSW 18.5 km/h / 5.1 m/s - N/A   Overcast
4:25 PM 21.0 °C 13.0 °C 60% 1021 hPa 10.0 km SW 18.5 km/h / 5.1 m/s - N/A   Overcast
4:38 PM 20.0 °C 14.0 °C 68% 1021 hPa 10.0 km SW 16.7 km/h / 4.6 m/s - N/A   Overcast
4:55 PM 20.0 °C 13.0 °C 64% 1021 hPa 10.0 km WSW 16.7 km/h / 4.6 m/s - N/A   Overcast
5:25 PM 19.0 °C 14.0 °C 73% 1021 hPa 10.0 km SW 16.7 km/h / 4.6 m/s - N/A   Overcast
5:38 PM 19.0 °C 14.0 °C 73% 1022 hPa 10.0 km SW 14.8 km/h / 4.1 m/s - N/A   Overcast
5:55 PM 19.0 °C 14.0 °C 73% 1022 hPa 10.0 km SW 13.0 km/h / 3.6 m/s - N/A   Overcast
6:12 PM 19.0 °C 14.0 °C 73% 1022 hPa 10.0 km SW 14.8 km/h / 4.1 m/s - N/A   Overcast
6:25 PM 19.0 °C 14.0 °C 73% 1022 hPa 10.0 km SW 14.8 km/h / 4.1 m/s - N/A   Overcast
6:55 PM 19.0 °C 14.0 °C 73% 1022 hPa 10.0 km SW 11.1 km/h / 3.1 m/s - N/A   Overcast
7:25 PM 18.0 °C 14.0 °C 77% 1022 hPa 10.0 km SW 13.0 km/h / 3.6 m/s - N/A   Overcast
7:55 PM 18.0 °C 15.0 °C 83% 1022 hPa 10.0 km WSW 14.8 km/h / 4.1 m/s - N/A   Overcast
8:01 PM 18.0 °C 15.0 °C 83% 1022 hPa 7.0 km WSW 11.1 km/h / 3.1 m/s - N/A   Haze
8:06 PM 18.0 °C 15.0 °C 83% 1022 hPa 10.0 km WSW 9.3 km/h / 2.6 m/s - N/A   Overcast
8:25 PM 17.0 °C 15.0 °C 88% 1023 hPa - SW 11.1 km/h / 3.1 m/s - N/A   Overcast
8:37 PM 17.0 °C 15.0 °C 88% 1023 hPa 5.0 km WSW 11.1 km/h / 3.1 m/s - N/A Rain Light Rain
8:49 PM 17.0 °C 15.0 °C 88% 1023 hPa 4.5 km SW 7.4 km/h / 2.1 m/s - N/A Rain Light Rain
8:55 PM 17.0 °C 15.0 °C 88% 1023 hPa - SW 7.4 km/h / 2.1 m/s - N/A Rain Light Rain
9:06 PM 17.0 °C 16.0 °C 94% 1023 hPa - SW 7.4 km/h / 2.1 m/s - N/A Rain Rain
9:25 PM 16.0 °C 16.0 °C 100% 1023 hPa 8.0 km SW 5.6 km/h / 1.5 m/s - N/A   Mostly Cloudy
9:29 PM 16.0 °C 16.0 °C 100% 1023 hPa 9.0 km SW 5.6 km/h / 1.5 m/s - N/A   Mostly Cloudy
9:33 PM 17.0 °C 16.0 °C 94% 1023 hPa 9.0 km SW 7.4 km/h / 2.1 m/s - N/A   Overcast
9:55 PM 16.0 °C 15.0 °C 94% 1023 hPa 10.0 km SSW 7.4 km/h / 2.1 m/s - N/A   Mostly Cloudy
10:25 PM 16.0 °C 16.0 °C 100% 1024 hPa 10.0 km SSW 7.4 km/h / 2.1 m/s - N/A   Overcast
10:39 PM 16.0 °C 16.0 °C 100% 1024 hPa 10.0 km SSW 5.6 km/h / 1.5 m/s - N/A   Overcast
10:55 PM 17.0 °C 16.0 °C 94% 1024 hPa 10.0 km SSW 9.3 km/h / 2.6 m/s - N/A   Overcast
11:25 PM 16.0 °C 15.0 °C 94% 1024 hPa 10.0 km SSW 7.4 km/h / 2.1 m/s - N/A   Mostly Cloudy
11:55 PM 16.0 °C 15.0 °C 94% 1024 hPa 10.0 km SSW 7.4 km/h / 2.1 m/s - N/A   Partly Cloudy